User: anonymous   Login
Location: Arcizac
(43.0933°N, 0.0112°E)
Time: 12:58:34
(UTC+00:00)
Language:

CSL-04 Rocket - Orbit

View from above orbital plane
View from above orbital plane
View from above satellite
View from above satellite

Ground track
Ground track

The orbit data is extracted from the following two-line orbital elements,

1 25732U 99025C   20052.67627662 -.00000028  00000-0  84899-5 0  9999
2 25732  98.9577  80.5265 0037375 181.8430 285.5007 14.17673017 75413
Epoch (UTC): 21 February 2020 16:13:50
Eccentricity: 0.0037375
inclination: 98.9577°
perigee height: 806 km
apogee height: 860 km
right ascension of ascending node: 80.5265°
argument of perigee: 181.8430°
revolutions per day: 14.17673017
mean anomaly at epoch: 285.5007°
orbit number at epoch: 7541

The dashed part of the orbit path shows where the satellite is in the earth's shadow,  

DLR